If you wish to contribute or participate in the discussions about articles you are invited to join SKYbrary as a registered user

 Actions

Saint-Nazaire-Montoir Airport

From SKYbrary Wiki

LFRZ
Airport
ICAO: LFRZ – IATA: SNR
Summary
Name Saint-Nazaire-Montoir Airport
Region Europe
Territory France FR.gif
Location , Pays de la Loire
Serving St.-nazaire
Elevation 3.962 m
13 ft
13 ft3.962 m
Type medium airport
Coordinates 47° 18' 43.88" N, 2° 8' 57.05" W
Runways
Designator Length Width Surface ROPS
8/26 2400 m7,874.016 ft
45 m147.638 ft
ASP /


METAR
Observation LFRZ 221300Z AUTO 21008KT CAVOK 21/10 Q1020 NOSIG
Station St-Nazaire
Date/Time 22 May 2019 13:00:00
Wind direction 210°
Wind speed 08 kts
Lowest cloud amount clouds and visibility OK
Temperature 21°C
Dew point 10°C
Humidity 49%
QNH 1020 hPa
Weather condition n/a